Location: Peterborough
(44.3048°N, 78.3199°W)
Time: 04:26:14
(UTC-04:00)

ISS - Pass Details

Date: 17 May 2025
Orbit: 415 x 418 km, 51.6° (Epoch: 20 June)

Event Time Altitude Azimuth Distance (km) Brightness Sun altitude
Rises 00:45:37 0° 301° (WNW) 2,359 0.6 -26.1°
Reaches altitude 10° 00:47:43 10° 302° (WNW) 1,492 -0.5 -26.1°
Enters shadow 00:48:24 15° 302° (WNW) 1,215 -1.0 -26.1°
